星链-30195 (STARLINK-30195 )

导读 | 豆包AI

STARLINK-30195是美国SpaceX星链(Starlink)卫星互联网星座中的一颗低轨卫星,于2023年7月20日发射升空,归属星链第二代卫星群组。它运行在近地轨道,配备先进通信设备,旨在为全球尤其是偏远基础设施匮乏区域提供高速低延迟宽带互联网接入,同时拓展星链网络覆盖范围与服务能力,支撑星链星座的全球互联目标。

基本信息
目录编号:
57406
目录名称:
STARLINK-30195
国际标识:
2023-102C
轨道中心:
EARTH
卫星名称:
星链-30195
卫星全名:
星链-30195 (STARLINK-30195 )
卫星状态:
在轨 (已飞行969 天)
发射日期:
2023-07-20 UTC
国别 :
美国 (US)
星等 :
--
轨道信息
数据来源 国际轨道数据
星历时间: 2026-03-15T22:00:02+0800
9小时前
查看轨道信息
半长轴: 6910.331km
偏心率: 0.000165
轨道倾角: 42.999°
近地点辐角 257.787°
升交点赤经 216.309°
平近点角 307.580°
近地点: 531.053km
远地点: 533.335km
周期: 95.281分钟
每日圈数: 15.113135
详细信息
固有亮度:
5
最大亮度:
0.3
卫星平台:
Starlink v2.0 mini
覆盖范围:
全球
运营商:
太空探索技术公司
运营商所在国:
美国
制造商(研发单位):
太空探索技术公司
制造商所在国:
美国
使用方式:
暂无
卫星简介
星链(Starlink)计划是由太空探索技术公司(SpaceX)提出的一个巨型低轨卫星互联网星座项目,计划在2019年至2024年间在太空搭建由约1.2万颗卫星组成的“星链”网络,其中1584颗将部署在地球上空550千米处的近地轨道,并从2020年开始工作。该卫星仍在工作。
2D轨道图
3D轨道图
轨道高度分析图
轨道倾角分析图
轨道综合分析图
查看轨道综合分析图